Date String (YYYY-MM-DD hh:mm:ss) UTC,Instrument flags,Ambient pressure (hPa),Sample flow (lpm),Bypass flow (lpm),Sample temperature (°C),Ambient temperature (°C),ASC tube jacket temperature (°C),LED temperature (°C),Box temperature (°C),Sample RH (%),Span deviation,Mass concentration (μg/m³),Mass concentration (μg/m³),Mass concentration (μg/m³)
DateTimeUTC,F1_M11,P_M11,Q1_M11,Q2_M11,T1_M11,T2_M11,T3_M11,T4_M11,T5_M11,U1_M11,ZSPAN_M11,X0_M11,X2_M11,X1_M11
2022-07-25 20:00:00,,0827.2,4.99,0.00,31.1,27.5,00.0,39.5,31.9,33.1,0000.0,0015.59,0009.06,0008.05
2022-07-25 20:01:00,,0827.2,5.00,0.00,31.0,27.7,00.0,39.5,31.9,33.2,0000.0,0015.56,0009.06,0008.04
2022-07-25 20:02:00,,0827.1,5.00,0.00,31.0,27.9,00.0,39.5,31.9,32.4,0000.0,0015.21,0009.00,0008.00
2022-07-25 20:03:00,,0827.1,5.00,0.00,31.0,28.1,00.0,39.5,32.0,33.1,0000.0,0014.76,0008.91,0007.97
2022-07-25 20:04:00,,0827.1,5.00,0.00,31.0,28.3,00.0,39.4,32.0,32.3,0000.0,0014.51,0008.82,0007.92
2022-07-25 20:05:00,,0827.1,5.00,0.00,30.9,28.2,00.0,39.4,32.0,31.4,0000.0,0014.62,0008.71,0007.86
2022-07-25 20:06:00,,0827.1,4.99,0.00,30.9,27.6,00.0,39.3,31.9,31.7,0000.0,0014.62,0008.65,0007.82
2022-07-25 20:07:00,,0827.1,5.01,0.00,30.8,27.3,00.0,39.3,31.8,31.3,0000.0,0014.70,0008.63,0007.79
2022-07-25 20:08:00,,0827.5,4.99,0.00,30.7,27.2,00.0,39.2,31.7,31.9,0000.0,0014.99,0008.55,0007.73
2022-07-25 20:09:00,,0827.1,5.00,0.00,30.6,27.3,00.0,39.2,31.6,32.2,0000.0,0014.78,0008.42,0007.68
2022-07-25 20:10:00,,0827.6,4.99,0.00,30.6,27.5,00.0,39.2,31.6,32.0,0000.0,0014.59,0008.38,0007.64
2022-07-25 20:11:00,,0827.1,4.99,0.00,30.5,27.7,00.0,39.2,31.7,31.9,0000.0,0014.23,0008.36,0007.61
2022-07-25 20:12:00,,0827.1,5.00,0.00,30.5,27.9,00.0,39.1,31.7,31.7,0000.0,0014.82,0008.33,0007.58
2022-07-25 20:13:00,,0827.4,5.00,0.00,30.5,28.1,00.0,39.1,31.8,32.4,0000.0,0015.17,0008.37,0007.58
2022-07-25 20:14:00,,0827.2,5.00,0.00,30.5,28.3,00.0,39.1,31.9,33.1,0000.0,0016.10,0008.40,0007.58
2022-07-25 20:15:00,,0827.5,5.00,0.00,30.5,28.0,00.0,39.0,31.8,33.2,0000.0,0016.93,0008.42,0007.55
2022-07-25 20:16:00,,0827.0,5.00,0.00,30.4,27.4,00.0,39.0,31.7,32.3,0000.0,0017.36,0008.43,0007.54
2022-07-25 20:17:00,,0827.0,5.01,0.00,30.4,27.2,00.0,38.9,31.6,32.1,0000.0,0016.73,0008.44,0007.53
2022-07-25 20:18:00,,0827.0,5.00,0.00,30.3,27.2,00.0,38.9,31.5,33.0,0000.0,0016.67,0008.42,0007.51
2022-07-25 20:19:00,,0826.9,4.99,0.00,30.2,27.3,00.0,38.9,31.5,32.8,0000.0,0016.90,0008.35,0007.46
2022-07-25 20:20:00,,0827.0,5.00,0.00,30.2,27.5,00.0,38.8,31.5,33.2,0000.0,0016.50,0008.32,0007.41
2022-07-25 20:21:00,,0827.0,5.00,0.00,30.2,27.7,00.0,38.8,31.6,33.3,0000.0,0016.50,0008.32,0007.37
2022-07-25 20:22:00,,0827.1,5.01,0.00,30.2,27.9,00.0,38.8,31.7,32.7,0000.0,0016.26,0008.23,0007.31
2022-07-25 20:23:00,,0827.1,5.00,0.00,30.2,28.1,00.0,38.8,31.7,32.0,0000.0,0015.64,0008.17,0007.26
2022-07-25 20:24:00,,0827.1,5.00,0.00,30.2,28.3,00.0,38.8,31.8,31.5,0000.0,0015.39,0008.09,0007.21
2022-07-25 20:25:00,,0827.1,4.99,0.00,30.2,28.0,00.0,38.8,31.7,32.7,0000.0,0014.58,0008.04,0007.16
2022-07-25 20:26:00,,0827.1,5.00,0.00,30.1,27.5,00.0,38.7,31.7,33.1,0000.0,0013.57,0007.92,0007.10
2022-07-25 20:27:00,,0827.0,5.00,0.00,30.1,27.2,00.0,38.7,31.6,31.0,0000.0,0013.32,0007.80,0007.04
2022-07-25 20:28:00,,0826.9,5.00,0.00,30.0,27.3,00.0,38.7,31.5,30.7,0000.0,0013.37,0007.77,0006.98
2022-07-25 20:29:00,,0826.9,5.00,0.00,29.9,27.4,00.0,38.6,31.4,30.5,0000.0,0013.32,0007.68,0006.91
2022-07-25 20:30:00,,0826.9,5.00,0.00,29.9,27.6,00.0,38.6,31.4,30.7,0000.0,0013.07,0007.71,0006.89
2022-07-25 20:31:00,,0826.9,5.01,0.00,29.9,27.8,00.0,38.6,31.5,31.2,0000.0,0013.27,0007.71,0006.87
2022-07-25 20:32:00,,0826.9,4.99,0.00,29.9,28.0,00.0,38.6,31.6,31.1,0000.0,0013.55,0007.65,0006.83
2022-07-25 20:33:00,,0826.9,5.00,0.00,29.9,28.1,00.0,38.6,31.6,30.5,0000.0,0013.88,0007.63,0006.80
2022-07-25 20:34:00,,0826.9,5.01,0.00,30.0,28.2,00.0,38.6,31.7,30.8,0000.0,0014.08,0007.60,0006.76
2022-07-25 20:35:00,,0827.1,5.00,0.00,29.9,27.7,00.0,38.5,31.6,31.2,0000.0,0014.18,0007.62,0006.71
2022-07-25 20:36:00,,0827.1,5.01,0.00,29.9,27.2,00.0,38.5,31.5,30.8,0000.0,0014.71,0007.65,0006.68
2022-07-25 20:37:00,,0827.1,4.99,0.00,29.8,27.1,00.0,38.5,31.4,30.7,0000.0,0015.17,0007.66,0006.64
2022-07-25 20:38:00,,0826.9,5.00,0.00,29.8,27.2,00.0,38.5,31.3,31.0,0000.0,0014.51,0007.66,0006.64
2022-07-25 20:39:00,,0826.8,5.01,0.00,29.7,27.4,00.0,38.4,31.3,30.8,0000.0,0014.35,0007.66,0006.66
2022-07-25 20:40:00,,0826.8,5.00,0.00,29.7,27.6,00.0,38.4,31.4,30.4,0000.0,0014.38,0007.69,0006.68
2022-07-25 20:41:00,,0826.8,4.99,0.00,29.7,27.8,00.0,38.4,31.4,31.1,0000.0,0014.09,0007.65,0006.68
2022-07-25 20:42:00,,0826.8,5.00,0.00,29.8,28.0,00.0,38.4,31.5,30.4,0000.0,0013.98,0007.69,0006.67
2022-07-25 20:43:00,,0826.8,5.01,0.00,29.8,28.2,00.0,38.4,31.6,30.7,0000.0,0014.00,0007.74,0006.68
2022-07-25 20:44:00,,0827.0,5.00,0.00,29.8,28.3,00.0,38.4,31.6,30.1,0000.0,0013.94,0007.77,0006.71
2022-07-25 20:45:00,,0827.1,5.01,0.00,29.8,27.9,00.0,38.4,31.6,30.4,0000.0,0013.68,0007.82,0006.75
2022-07-25 20:46:00,,0826.8,4.99,0.00,29.8,27.3,00.0,38.4,31.4,29.7,0000.0,0013.68,0007.83,0006.79
2022-07-25 20:47:00,,0826.8,4.99,0.00,29.7,27.1,00.0,38.3,31.4,30.3,0000.0,0013.28,0007.81,0006.81
2022-07-25 20:48:00,,0826.8,4.99,0.00,29.6,27.2,00.0,38.3,31.3,30.2,0000.0,0013.09,0007.82,0006.84
2022-07-25 20:49:00,,0826.8,5.00,0.00,29.6,27.4,00.0,38.3,31.3,30.4,0000.0,0013.23,0007.86,0006.85
2022-07-25 20:50:00,,0826.8,4.99,0.00,29.6,27.6,00.0,38.3,31.3,30.0,0000.0,0013.27,0007.87,0006.86
2022-07-25 20:51:00,,0826.8,5.00,0.00,29.6,27.8,00.0,38.3,31.4,30.1,0000.0,0013.27,0007.88,0006.86
2022-07-25 20:52:00,,0826.8,5.00,0.00,29.6,28.0,00.0,38.3,31.4,29.9,0000.0,0013.24,0007.88,0006.87
2022-07-25 20:53:00,,0826.8,5.00,0.00,29.7,28.2,00.0,38.3,31.5,29.8,0000.0,0012.97,0007.86,0006.89
2022-07-25 20:54:00,,0826.7,4.99,0.00,29.7,28.3,00.0,38.4,31.6,29.6,0000.0,0012.72,0007.85,0006.91
2022-07-25 20:55:00,,0826.7,5.00,0.00,29.7,27.9,00.0,38.3,31.6,30.3,0000.0,0012.26,0007.84,0006.92
2022-07-25 20:56:00,,0826.7,5.02,0.00,29.7,27.4,00.0,38.3,31.4,30.6,0000.0,0012.19,0007.81,0006.89
2022-07-25 20:57:00,,0826.7,4.99,0.00,29.6,27.2,00.0,38.3,31.4,30.5,0000.0,0012.14,0007.78,0006.88
2022-07-25 20:58:00,,0826.7,5.00,0.00,29.6,27.2,00.0,38.2,31.2,30.7,0000.0,0012.04,0007.78,0006.90
2022-07-25 20:59:00,,0826.7,5.00,0.00,29.5,27.3,00.0,38.2,31.2,30.7,0000.0,0012.28,0007.77,0006.92
